Flag for Germany Weather past 2 weeks in Bautzen, Saxony, Germany

Now
41 °F

Overcast.


Feels Like: 37 °F
Forecast: 41 / 48 °F
Wind: 6 mph from West

Location: Goerlitz

Current Time: Dec 21, 2014 at 4:56:47 PM

Latest Report: Dec 21, 2014 at 4:00 PM


Visibility: 19 mi

Pressure: 30.27 "Hg

Humidity: 78%

Dew point: 34 °F

Location of BautzenLocation

Historic Weather in Bautzen — Graph

°F

Bautzen temperature yesterday

Maximum temperature yesterday: 42 °F (at 11:00 AM)
Minimum temperature yesterday: 38 °F (at 11:00 PM)
Average temperature yesterday: 41 °F

Past Weeks' High & Low Weather Summary

 TemperatureHumidityPressure
High54 °F (Dec 19, 4:00 AM)99% (Dec 9, 9:00 PM)30.46 "Hg (Dec 9, 9:00 PM)
Low24 °F (Dec 9, 8:00 AM)65% (Dec 20, 11:00 AM)29.58 "Hg (Dec 12, 9:00 PM)
Average39 °F88%29.98 "Hg
* Reported Dec 6 3:00 PM — Dec 21 3:00 PM, Bautzen, Weather by CustomWeather, © 2014

Note: Actual official high and low records may vary slightly from our data, if they occured in-between our weather recording intervals... More about our weather records

Advertising

Bautzen weather history for previous 24 hours

 ConditionsComfort  
Time TempWeatherWind HumidityBarometerVisibility
3:00 PM
Dec 21
41 °FOvercast.6 mph77%30.27 "Hg17 mi
2:00 PM41 °FOvercast.7 mph78%30.28 "Hg17 mi
1:00 PM40 °FOvercast.7 mph83%30.28 "Hg13 mi
12:00 PM40 °FOvercast.8 mph82%30.28 "Hg11 mi
11:00 AM40 °FOvercast.9 mph83%30.29 "Hg13 mi
10:00 AM39 °FOvercast.8 mph86%30.27 "Hg13 mi
9:00 AM38 °FPartly sunny.7 mph89%30.25 "Hg11 mi
8:00 AM38 °FPassing clouds.8 mph88%30.20 "Hg11 mi
7:00 AM38 °FLight rain. Overcast.7 mph90%30.18 "Hg7 mi
6:00 AM37 °FPassing clouds.7 mph90%30.16 "Hg15 mi
5:00 AM37 °FLight rain. Overcast.10 mph89%30.12 "Hg6 mi
4:00 AM38 °FLight rain. Overcast.10 mph83%30.09 "Hg10 mi
3:00 AM38 °FLight rain. Overcast.12 mph83%30.06 "Hg17 mi
2:00 AM39 °FOvercast.10 mph81%30.05 "Hg22 mi
1:00 AM38 °FPassing clouds.10 mph83%30.04 "Hg31 mi
12:00 AM37 °FPassing clouds.10 mph84%30.02 "Hg31 mi
11:00 PM
Dec 20
38 °FLight rain. Passing clouds.12 mph86%29.98 "Hg17 mi
10:00 PM38 °FLight rain. Overcast.10 mph86%29.95 "Hg19 mi
9:00 PM38 °FSprinkles. Overcast.10 mph87%29.93 "Hg25 mi
8:00 PM38 °FLight rain. Overcast.9 mph89%29.90 "Hg19 mi
7:00 PM38 °FRain. Low clouds.8 mph91%29.89 "Hg5 mi
6:00 PM40 °FLight rain. Overcast.10 mph81%29.86 "Hg12 mi
5:00 PM40 °FLight rain. Overcast.12 mph81%29.87 "Hg16 mi
4:00 PM41 °FLight rain. Overcast.13 mph69%29.89 "Hg19 mi
Weather by CustomWeather, © 2014

See weather overviewHow to use our weather pages